This demonstration page uses our WeatherBlox Daily Observations layout. Learn more.

Left ArrowRight Arrow

39.95238, -75.16362

Hourly Observations for April 7, 2015

Temp ( °F °C ) Dew Point ( °F °C ) Humidity (%) Winds ( mph kmh ) Pressure ( in mb ) Visibility ( mi km ) Precip ( " mm )
12:54 am 00:54 Partly Cloudy 59 15 43 6.1 56 56 SSW 8 13 30.15 1021 10 16 0.00 0.00
1:54 am 01:54 Cloudy 59 15 45 7.2 60 60 SSW 7 11 30.14 1021 10 16 0.00 0.00
2:54 am 02:54 Cloudy 59 15 45 7.2 60 60 SSW 8 13 30.14 1021 10 16 0.00 0.00
3:54 am 03:54 Cloudy 59 15 46 7.8 62 62 SSW 9 15 30.13 1020 10 16 0.00 0.00
4:54 am 04:54 Cloudy 59 15 47 8.3 64 64 S 6 9 30.13 1020 10 16 0.00 0.00
5:54 am 05:54 Cloudy 60 15.6 48 8.9 65 65 SSW 6 9 30.15 1021 10 16 0.00 0.00
6:41 am 06:41 Cloudy with Light Rain 58 14.4 51 10.6 78 78 SSW 8 13 30.15 1021 7 11 0.01 0.25
6:54 am 06:54 Cloudy with Light Rain 57 13.9 50 10 78 78 SSW 10 17 30.16 1021 7 11 0.01 0.25
7:54 am 07:54 Cloudy 58 14.4 52 11.1 81 81 S 9 15 30.16 1022 10 16 0.00 0.03
8:54 am 08:54 Mostly Cloudy 59 15 54 12.2 83 83 SSW 10 17 30.18 1022 10 16 0.00 0.03
9:54 am 09:54 Cloudy 61 16.1 54 12.2 78 78 SW 10 17 30.18 1022 10 16 0.00 0.00
10:54 am 10:54 Cloudy 63 17.2 54 12.2 73 73 SW 8 13 30.19 1022 10 16 0.00 0.00
11:54 am 11:54 Cloudy 65 18.3 53 11.7 66 66 SW 7 11 30.18 1022 10 16 0.00 0.00
12:54 pm 12:54 Cloudy 67 19.4 54 12.2 63 63 SSW 6 9 30.16 1022 10 16 0.00 0.00
1:54 pm 13:54 Mostly Cloudy 69 20.6 55 12.8 61 61 SSW 6 9 30.15 1021 10 16 0.00 0.00
2:46 pm 14:46 Cloudy with Light Rain 66 19 55 13 68 68 S 7 11 30.15 1021 8 13 0.00 0.00
2:54 pm 14:54 Cloudy with Light Rain 66 18.9 57 13.9 73 73 SSW 3 6 30.15 1021 7 11 0.00 0.03
3:31 pm 15:31 Cloudy 68 20 58 14.4 70 70 SE 5 7 30.12 1020 10 16 0.01 0.25
3:54 pm 15:54 Cloudy 67 19.4 57 13.9 71 71 Calm 30.13 1020 10 16 0.01 0.25
4:06 pm 16:06 Cloudy 66 19 57 14 73 73 Calm 30.15 1021 10 16 0.00 0.00
4:50 pm 16:50 Cloudy 66 19 57 14 73 73 S 3 6 30.15 1021 10 16 0.00 0.00
4:54 pm 16:54 Cloudy 67 19.4 57 13.9 71 71 S 5 7 30.14 1021 10 16 0.00 0.00
5:44 pm 17:44 Cloudy 61 16.1 52 11.1 72 72 ENE 13 20 30.15 1021 10 16 0.00 0.00
5:54 pm 17:54 Cloudy with Light Rain 59 15 51 10.6 75 75 NE 16 26 30.17 1022 10 16 0.00 0.03
5:58 pm 17:58 Cloudy with Rain 58 14.4 51 10.6 78 78 ENE 13 20 30.18 1022 3 4 0.00 0.03
6:36 pm 18:36 Cloudy with Light Rain 54 12 48 9 82 82 ENE 16 26 30.18 1022 3 4 0.00 0.00
6:54 pm 18:54 Cloudy with Light Rain 51 10.6 46 7.8 83 83 ENE 15 24 30.19 1023 3 4 0.03 0.76
7:28 pm 19:28 Cloudy with Light Rain 50 10 46 7.8 86 86 ENE 14 22 30.21 1023 3 5 0.01 0.25
7:37 pm 19:37 Cloudy with Light Rain 49 9.4 45 7.2 86 86 ENE 14 22 30.21 1023 3 5 0.01 0.25
7:46 pm 19:46 Cloudy with Drizzle 48 9 45 7 87 87 ENE 21 33 30.21 1023 3 4 0.00 0.00
7:54 pm 19:54 Cloudy with Drizzle 49 9.4 45 7.2 86 86 ENE 12 19 30.21 1023 3 4 0.02 0.51
8:13 pm 20:13 Cloudy with Drizzle 48 8.9 45 7.2 89 89 E 14 22 30.24 1024 3 4 0.02 0.51
8:36 pm 20:36 Cloudy with Light Rain 47 8.3 44 6.7 90 90 ENE 17 28 30.24 1024 3 4 0.03 0.76
8:51 pm 20:51 Cloudy with Light Rain 46 8 45 7 93 93 ENE 16 26 30.27 1025 5 8 0.04 1.02
8:54 pm 20:54 Cloudy with Mist and Fog 47 8.3 43 6.1 86 86 ENE 17 28 30.25 1025 6 10 0.04 1.02
9:10 pm 21:10 Cloudy 47 8.3 44 6.7 90 90 ENE 13 20 30.27 1025 7 11 0.00 0.00
9:18 pm 21:18 Cloudy with Drizzle 47 8.3 43 6.1 86 86 ENE 16 26 30.27 1025 5 8 0.00 0.03
9:38 pm 21:38 Cloudy with Drizzle 47 8.3 44 6.7 90 90 ENE 13 20 30.27 1025 3 5 0.00 0.03
9:50 pm 21:50 Cloudy with Drizzle 46 8 45 7 93 93 ENE 12 19 30.27 1025 3 5 0.00 0.03
9:54 pm 21:54 Cloudy with Drizzle 47 8.3 44 6.7 90 90 ENE 12 19 30.26 1025 3 5 0.00 0.03
10:11 pm 22:11 Cloudy with Mist and Fog 47 8.3 43 6.1 86 86 ENE 12 19 30.24 1024 5 8 0.00 0.03
10:54 pm 22:54 Cloudy with Light Rain 46 7.8 43 6.1 89 89 ENE 13 20 30.26 1025 5 8 0.01 0.25
11:47 pm 23:47 Cloudy with Light Rain 46 7.8 42 5.6 86 86 ENE 13 20 30.27 1025 4 6 0.02 0.51
11:54 pm 23:54 Cloudy with Light Rain 46 7.8 42 5.6 86 86 E 15 24 30.28 1025 4 6 0.02 0.51

Powered by AerisWeather